This is the latest recevied weather packets stored in our database for station/object K3RUP-1. If no packets are shown the sender has not sent any weather packets the latest 10 day(s).
| Time | Temp. | Humidity | Pressure | Rain* | Wind** | Luminosity | Snow |
|---|---|---|---|---|---|---|---|
| 1777579467 | 19.44° C | 46% | 1007 hPa | 0 mm | - | 91 W/m² | - |
| 1777579162 | 20° C | 45% | 1006.9 hPa | 0 mm | - | 122 W/m² | - |
| 1777578857 | 20.56° C | 41% | 1007 hPa | 0 mm | - | 136 W/m² | - |
| 1777578553 | 20.56° C | 44% | 1007.1 hPa | 0 mm | - | 686 W/m² | - |
| 1777578248 | 20° C | 44% | 1007 hPa | 0 mm | - | 634 W/m² | - |
| 1777577944 | 20° C | 47% | 1007 hPa | 0 mm | - | 652 W/m² | - |
| 1777577639 | 20° C | 42% | 1006.8 hPa | 0 mm | - | 138 W/m² | - |
| 1777577337 | 21.11° C | 42% | 1006.9 hPa | 0 mm | - | 150 W/m² | - |
| 1777577032 | 20° C | 42% | 1007 hPa | 0 mm | - | 645 W/m² | - |
| 1777576730 | 20.56° C | 46% | 1006.9 hPa | 0 mm | - | 174 W/m² | - |
| 1777576428 | 20° C | 45% | 1007 hPa | 0 mm | - | 164 W/m² | - |
| 1777576125 | 20° C | 46% | 1007.1 hPa | 0 mm | - | 178 W/m² | - |
| 1777575815 | 19.44° C | 46% | 1006.9 hPa | 0 mm | - | 680 W/m² | - |
| 1777575512 | 19.44° C | 47% | 1007.1 hPa | 0 mm | - | 181 W/m² | - |
| 1777575208 | 19.44° C | 45% | 1006.9 hPa | 0 mm | - | 123 W/m² | - |
| 1777574904 | 19.44° C | 47% | 1007 hPa | 0 mm | - | 153 W/m² | - |
| 1777574601 | 19.44° C | 43% | 1007 hPa | 0 mm | - | 711 W/m² | - |
| 1777574297 | 19.44° C | 45% | 1007 hPa | 0 mm | - | 180 W/m² | - |
| 1777573986 | 20° C | 44% | 1007 hPa | 0 mm | - | 163 W/m² | - |
| 1777573681 | 19.44° C | 47% | 1007.1 hPa | 0 mm | - | 737 W/m² | - |
| 1777573378 | 19.44° C | 43% | 1007 hPa | 0 mm | - | 243 W/m² | - |
| 1777573073 | 20° C | 47% | 1007.2 hPa | 0 mm | - | 161 W/m² | - |
| 1777572770 | 20° C | 49% | 1007 hPa | 0 mm | - | 740 W/m² | - |
| 1777572465 | 20° C | 48% | 1007 hPa | 0 mm | - | 231 W/m² | - |
| 1777572162 | 19.44° C | 46% | 1007.1 hPa | 0 mm | - | 257 W/m² | - |
* Rain latest hour (hover to see other rain measurements)
** Current wind speed in m/s (hover to see current wind gust speed)